Flag for Brazil Weather past 2 weeks in Teresina, Piauí, Brazil

Now
77 °F

Partly sunny.


Feels Like: 78 °F
Forecast: 74 / 90 °F
Wind: 7 mph from South

Location: Teresina Aeroporto

Current Time: Dec 18, 2014 at 7:09:48 AM

Latest Report: Dec 18, 2014 at 6:00 AM


Visibility: N/A

Pressure: 29.86 "Hg

Humidity: 83%

Dew point: 72 °F

Location of TeresinaLocation

Historic Weather in Teresina — Graph

°F

Teresina temperature yesterday

Maximum temperature yesterday: 86 °F (at 12:00 PM)
Minimum temperature yesterday: 77 °F (at 11:00 PM)
Average temperature yesterday: 82 °F

Past Weeks' High & Low Weather Summary

 TemperatureHumidityPressure
High102 °F (Dec 10, 1:00 PM)100% (Dec 5, 11:00 PM)29.95 "Hg (Dec 5, 11:00 PM)
Low75 °F (Dec 5, 11:00 PM)25% (Dec 12, 4:00 PM)29.68 "Hg (Dec 3, 3:00 PM)
Average85 °F61%29.81 "Hg
* Reported Dec 3 6:00 AM — Dec 18 6:00 AM, Teresina, Weather by CustomWeather, © 2014

Note: Actual official high and low records may vary slightly from our data, if they occured in-between our weather recording intervals... More about our weather records

Advertising

Teresina weather history for previous 24 hours

 ConditionsComfort  
Time TempWeatherWind HumidityBarometerVisibility
6:00 AM
Dec 18
77 °FPartly sunny.7 mph83%29.86 "HgN/A
5:00 AM75 °FPassing clouds.6 mph89%29.86 "HgN/A
4:00 AM77 °FPassing clouds.6 mph83%29.83 "HgN/A
3:00 AM77 °FClear.3 mph83%29.83 "Hg10 mi
2:00 AM77 °FPassing clouds.5 mph79%29.86 "HgN/A
1:00 AM75 °FClear.5 mph89%29.86 "Hg10 mi
12:00 AM77 °FPassing clouds.5 mph83%29.86 "HgN/A
11:00 PM
Dec 17
77 °FClear.8 mph83%29.86 "Hg10 mi
10:00 PM79 °FClear.7 mph79%29.86 "Hg10 mi
9:00 PM81 °FClear.7 mph74%29.86 "Hg10 mi
8:00 PM81 °FClear.7 mph74%29.83 "Hg10 mi
7:00 PM82 °FClear.10 mph66%29.83 "Hg10 mi
6:00 PM84 °FPassing clouds.10 mph62%29.80 "HgN/A
5:00 PM86 °FBroken clouds.12 mph59%29.80 "HgN/A
4:00 PM84 °FBroken clouds.13 mph62%29.80 "HgN/A
3:00 PM86 °FPassing clouds.14 mph59%29.83 "HgN/A
2:00 PM86 °FScattered clouds.9 mph55%29.83 "HgN/A
1:00 PM86 °FPassing clouds.9 mph55%29.86 "HgN/A
12:00 PM86 °FPassing clouds.9 mph52%29.92 "HgN/A
11:00 AM84 °FPassing clouds.7 mph55%29.92 "HgN/A
10:00 AM82 °FPassing clouds.6 mph58%29.95 "HgN/A
9:00 AM81 °FBroken clouds.6 mph70%29.95 "HgN/A
8:00 AM79 °FPartly sunny.5 mph74%29.92 "HgN/A
7:00 AM79 °FPartly sunny.5 mph74%29.89 "HgN/A
Weather by CustomWeather, © 2014

See weather overviewHow to use our weather pages